Location: Leipzig
(51.3203°N, 12.3761°E)
Time: 06:34:13
(UTC+01:00)

ISS - Pass Details

Date: 04 December 2021
Orbit: 413 x 422 km, 51.6° (Epoch: 22 January)

Event Time Altitude Azimuth Distance (km) Brightness Sun altitude
Rises 17:50:27 0° 284° (WNW) 2,386 1.1 -15.7°
Reaches altitude 10° 17:52:36 10° 278° (W) 1,517 0.1 -16.0°
Maximum altitude 17:55:53 46° 205° (SSW) 580 -2.8 -16.5°
Enters shadow 17:57:53 20° 139° (SE) 1,033 -2.0 -16.8°
